CZ-3B R/B (49126 NORAD) Tracking and Keplerian Element Data

This shows tracking and keplerian element data for the satellite.

Feedback or suggestion? Click here.




ElementValue
Catalog49126
NameCZ-3B R/B
Epoch Orbit50
Epoch Day280.60057181
Epoch Year2021
RAAN152.1765
Inclination24.6524
Eccentricity0.7209638
Argument of Perigee198.4021
Mean Anonmoly108.3105
Mean Motion2.40313053
Decay Rate0.00017416
L11 49126U 21080B 21280.60057181 .00017416 -19262-6 10519-2 0 9998
L22 49126 24.6524 152.1765 7209638 198.4021 108.3105 2.40313053 508

Live tracking and technical data element details for CZ-3B R/B (NORAD 49126). CZ-3B R/B can be tracked NOW for your location showing map with azimuth and elevation plus other details from your city location.

Track the satellite on the map from your city or location and see movement details for azimuth, elevation, latitude, longitude, range, height, and movement on the map or in text.







IsCatalogInMostPopularTable: catalog: 49126, numindb: 3
Update: records affected: 1



GetName: 49126 CZ-3B R/B

Hit Count: updated at: Thu, 28 Oct 2021 10:39:37 GMT